Year,Month,Day,Hour,Minute,Value (Times are PST for temperature in C)
2009,04,24,00,00,3.60
2009,04,24,00,01,3.60
2009,04,24,00,02,3.60
2009,04,24,00,03,3.50
2009,04,24,00,04,3.50
2009,04,24,00,05,3.40
2009,04,24,00,06,3.40
2009,04,24,00,07,3.40
2009,04,24,00,08,3.40
2009,04,24,00,09,3.40
2009,04,24,00,10,3.40
2009,04,24,00,11,3.40
2009,04,24,00,12,3.40
2009,04,24,00,13,3.30
2009,04,24,00,14,3.30
2009,04,24,00,15,3.30
2009,04,24,00,16,3.30
2009,04,24,00,17,3.40
2009,04,24,00,18,3.40
2009,04,24,00,19,3.40
2009,04,24,00,20,3.40
2009,04,24,00,21,3.40
2009,04,24,00,22,3.40
2009,04,24,00,23,3.40
2009,04,24,00,24,3.40
2009,04,24,00,25,3.40
2009,04,24,00,26,3.30
2009,04,24,00,27,3.30
2009,04,24,00,28,3.30
2009,04,24,00,29,3.30
2009,04,24,00,30,3.30
2009,04,24,00,31,3.30
2009,04,24,00,32,3.30
2009,04,24,00,33,3.30
2009,04,24,00,34,3.30
2009,04,24,00,35,3.30
2009,04,24,00,36,3.30
2009,04,24,00,37,3.20
2009,04,24,00,38,3.20
2009,04,24,00,39,3.20
2009,04,24,00,40,3.20
2009,04,24,00,41,3.20
2009,04,24,00,42,3.30
2009,04,24,00,43,3.30
2009,04,24,00,44,3.30
2009,04,24,00,45,3.30
2009,04,24,00,46,3.30
2009,04,24,00,47,3.30
2009,04,24,00,48,3.30
2009,04,24,00,49,3.30
2009,04,24,00,50,3.30
2009,04,24,00,51,3.30
2009,04,24,00,52,3.30
2009,04,24,00,53,3.20
2009,04,24,00,54,3.20
2009,04,24,00,55,3.20
2009,04,24,00,56,3.20
2009,04,24,00,57,3.20
2009,04,24,00,58,3.20
2009,04,24,00,59,3.10
2009,04,24,01,00,3.10
2009,04,24,01,01,3.10
2009,04,24,01,02,3.10
2009,04,24,01,03,3.00
2009,04,24,01,04,3.00
2009,04,24,01,05,2.90
2009,04,24,01,06,2.90
2009,04,24,01,07,2.90
2009,04,24,01,08,2.90
2009,04,24,01,09,2.90
2009,04,24,01,10,2.90
2009,04,24,01,11,2.90
2009,04,24,01,12,2.90
2009,04,24,01,13,2.80
2009,04,24,01,14,2.80
2009,04,24,01,15,2.80
2009,04,24,01,16,2.80
2009,04,24,01,17,2.90
2009,04,24,01,18,2.90
2009,04,24,01,19,2.90
2009,04,24,01,20,2.90
2009,04,24,01,21,2.90
2009,04,24,01,22,2.90
2009,04,24,01,23,2.90
2009,04,24,01,24,2.80
2009,04,24,01,25,2.80
2009,04,24,01,26,2.80
2009,04,24,01,27,2.80
2009,04,24,01,28,2.80
2009,04,24,01,29,2.80
2009,04,24,01,30,2.80
2009,04,24,01,31,2.80
2009,04,24,01,32,2.80
2009,04,24,01,33,2.70
2009,04,24,01,34,2.70
2009,04,24,01,35,2.70
2009,04,24,01,36,2.70
2009,04,24,01,37,2.60
2009,04,24,01,38,2.60
2009,04,24,01,39,2.60
2009,04,24,01,40,2.60
2009,04,24,01,41,2.60
2009,04,24,01,42,2.60
2009,04,24,01,43,2.60
2009,04,24,01,44,2.60
2009,04,24,01,45,2.60
2009,04,24,01,46,2.60
2009,04,24,01,47,2.60
2009,04,24,01,48,2.60
2009,04,24,01,49,2.50
2009,04,24,01,50,2.40
2009,04,24,01,51,2.40
2009,04,24,01,52,2.40
2009,04,24,01,53,2.40
2009,04,24,01,54,2.40
2009,04,24,01,55,2.50
2009,04,24,01,56,2.50
2009,04,24,01,57,2.50
2009,04,24,01,58,2.50
2009,04,24,01,59,2.50
2009,04,24,02,00,2.50
2009,04,24,02,01,2.50
2009,04,24,02,02,2.50
2009,04,24,02,03,2.50
2009,04,24,02,04,2.50
2009,04,24,02,05,2.50
2009,04,24,02,06,2.40
2009,04,24,02,07,2.40
2009,04,24,02,08,2.40
2009,04,24,02,09,2.40
2009,04,24,02,10,2.40
2009,04,24,02,11,2.40
2009,04,24,02,12,2.40
2009,04,24,02,13,2.40
2009,04,24,02,14,2.40
2009,04,24,02,15,2.30
2009,04,24,02,16,2.30
2009,04,24,02,17,2.30
2009,04,24,02,18,2.30
2009,04,24,02,19,2.30
2009,04,24,02,20,2.30
2009,04,24,02,21,2.30
2009,04,24,02,22,2.30
2009,04,24,02,23,2.30
2009,04,24,02,24,2.30
2009,04,24,02,25,2.30
2009,04,24,02,26,2.30
2009,04,24,02,27,2.20
2009,04,24,02,28,2.20
2009,04,24,02,29,2.20
2009,04,24,02,30,2.20
2009,04,24,02,31,2.20
2009,04,24,02,32,2.20
2009,04,24,02,33,2.20
2009,04,24,02,34,2.20
2009,04,24,02,35,2.20
2009,04,24,02,36,2.20
2009,04,24,02,37,2.10
2009,04,24,02,38,2.10
2009,04,24,02,39,2.10
2009,04,24,02,40,2.10
2009,04,24,02,41,2.20
2009,04,24,02,42,2.10
2009,04,24,02,43,2.10
2009,04,24,02,44,2.10
2009,04,24,02,45,2.10
2009,04,24,02,46,2.10
2009,04,24,02,47,2.10
2009,04,24,02,48,2.10
2009,04,24,02,49,2.10
2009,04,24,02,50,2.10
2009,04,24,02,51,2.20
2009,04,24,02,52,2.20
2009,04,24,02,53,2.20
2009,04,24,02,54,2.20
2009,04,24,02,55,2.10
2009,04,24,02,56,2.10
2009,04,24,02,57,2.10
2009,04,24,02,58,2.20
2009,04,24,02,59,2.20
2009,04,24,03,00,2.10
2009,04,24,03,01,2.10
2009,04,24,03,02,2.10
2009,04,24,03,03,2.10
2009,04,24,03,04,2.10
2009,04,24,03,05,2.10
2009,04,24,03,06,2.10
2009,04,24,03,07,2.10
2009,04,24,03,08,2.10
2009,04,24,03,09,2.20
2009,04,24,03,10,2.20
2009,04,24,03,11,2.30
2009,04,24,03,12,2.30
2009,04,24,03,13,2.30
2009,04,24,03,14,2.30
2009,04,24,03,15,2.30
2009,04,24,03,16,2.30
2009,04,24,03,17,2.30
2009,04,24,03,18,2.40
2009,04,24,03,19,2.40
2009,04,24,03,20,2.50
2009,04,24,03,21,2.60
2009,04,24,03,22,2.60
2009,04,24,03,23,2.60
2009,04,24,03,24,2.50
2009,04,24,03,25,2.40
2009,04,24,03,26,2.30
2009,04,24,03,27,2.30
2009,04,24,03,28,2.20
2009,04,24,03,29,2.20
2009,04,24,03,30,2.20
2009,04,24,03,31,2.20
2009,04,24,03,32,2.20
2009,04,24,03,33,2.10
2009,04,24,03,34,2.20
2009,04,24,03,35,2.20
2009,04,24,03,36,2.20
2009,04,24,03,37,2.20
2009,04,24,03,38,2.20
2009,04,24,03,39,2.20
2009,04,24,03,40,2.30
2009,04,24,03,41,2.20
2009,04,24,03,42,2.20
2009,04,24,03,43,2.20
2009,04,24,03,44,2.20
2009,04,24,03,45,2.20
2009,04,24,03,46,2.20
2009,04,24,03,47,2.20
2009,04,24,03,48,2.30
2009,04,24,03,49,2.40
2009,04,24,03,50,2.40
2009,04,24,03,51,2.40
2009,04,24,03,52,2.40
2009,04,24,03,53,2.40
2009,04,24,03,54,2.30
2009,04,24,03,55,2.30
2009,04,24,03,56,2.20
2009,04,24,03,57,2.10
2009,04,24,03,58,2.10
2009,04,24,03,59,2.00
2009,04,24,04,00,2.00
2009,04,24,04,01,2.00
2009,04,24,04,02,2.00
2009,04,24,04,03,1.90
2009,04,24,04,04,1.90
2009,04,24,04,05,1.90
2009,04,24,04,06,1.90
2009,04,24,04,07,1.90
2009,04,24,04,08,1.80
2009,04,24,04,09,1.90
2009,04,24,04,10,1.90
2009,04,24,04,11,1.90
2009,04,24,04,12,1.80
2009,04,24,04,13,1.80
2009,04,24,04,14,1.80
2009,04,24,04,15,1.80
2009,04,24,04,16,1.80
2009,04,24,04,17,1.80
2009,04,24,04,18,1.80
2009,04,24,04,19,1.80
2009,04,24,04,20,1.80
2009,04,24,04,21,1.80
2009,04,24,04,22,1.80
2009,04,24,04,23,1.80
2009,04,24,04,24,1.80
2009,04,24,04,25,1.80
2009,04,24,04,26,1.80
2009,04,24,04,27,1.80
2009,04,24,04,28,1.80
2009,04,24,04,29,1.90
2009,04,24,04,30,1.90
2009,04,24,04,31,1.90
2009,04,24,04,32,2.00
2009,04,24,04,33,2.00
2009,04,24,04,34,2.00
2009,04,24,04,35,2.10
2009,04,24,04,36,2.00
2009,04,24,04,37,2.00
2009,04,24,04,38,2.00
2009,04,24,04,39,2.00
2009,04,24,04,40,2.00
2009,04,24,04,41,2.10
2009,04,24,04,42,2.10
2009,04,24,04,43,2.10
2009,04,24,04,44,2.10
2009,04,24,04,45,2.10
2009,04,24,04,46,2.10
2009,04,24,04,47,2.10
2009,04,24,04,48,2.10
2009,04,24,04,49,2.10
2009,04,24,04,50,2.10
2009,04,24,04,51,2.10
2009,04,24,04,52,2.10
2009,04,24,04,53,2.10
2009,04,24,04,54,2.10
2009,04,24,04,55,2.10
2009,04,24,04,56,2.10
2009,04,24,04,57,2.20
2009,04,24,04,58,2.20
2009,04,24,04,59,2.20
2009,04,24,05,00,2.20
2009,04,24,05,01,2.30
2009,04,24,05,02,2.30
2009,04,24,05,03,2.30
2009,04,24,05,04,2.40
2009,04,24,05,05,2.40
2009,04,24,05,06,2.40
2009,04,24,05,07,2.30
2009,04,24,05,08,2.30
2009,04,24,05,09,2.30
2009,04,24,05,10,2.40
2009,04,24,05,11,2.50
2009,04,24,05,12,2.50
2009,04,24,05,13,2.50
2009,04,24,05,14,2.60
2009,04,24,05,15,2.60
2009,04,24,05,16,2.60
2009,04,24,05,17,2.50
2009,04,24,05,18,2.60
2009,04,24,05,19,2.60
2009,04,24,05,20,2.50
2009,04,24,05,21,2.50
2009,04,24,05,22,2.50
2009,04,24,05,23,2.50
2009,04,24,05,24,2.40
2009,04,24,05,25,2.30
2009,04,24,05,26,2.30
2009,04,24,05,27,2.20
2009,04,24,05,28,2.20
2009,04,24,05,29,2.20
2009,04,24,05,30,2.30
2009,04,24,05,31,2.30
2009,04,24,05,32,2.30
2009,04,24,05,33,2.30
2009,04,24,05,34,2.30
2009,04,24,05,35,2.30
2009,04,24,05,36,2.40
2009,04,24,05,37,2.40
2009,04,24,05,38,2.40
2009,04,24,05,39,2.40
2009,04,24,05,40,2.40
2009,04,24,05,41,2.40
2009,04,24,05,42,2.40
2009,04,24,05,43,2.50
2009,04,24,05,44,2.50
2009,04,24,05,45,2.60
2009,04,24,05,46,2.60
2009,04,24,05,47,2.60
2009,04,24,05,48,2.60
2009,04,24,05,49,2.60
2009,04,24,05,50,2.60
2009,04,24,05,51,2.60
2009,04,24,05,52,2.60
2009,04,24,05,53,2.60
2009,04,24,05,54,2.60
2009,04,24,05,55,2.60
2009,04,24,05,56,2.60
2009,04,24,05,57,2.60
2009,04,24,05,58,2.60
2009,04,24,05,59,2.60
2009,04,24,06,00,2.60
2009,04,24,06,01,2.60
2009,04,24,06,02,2.60
2009,04,24,06,03,2.60
2009,04,24,06,04,2.60
2009,04,24,06,05,2.60
2009,04,24,06,06,2.70
2009,04,24,06,07,2.70
2009,04,24,06,08,2.70
2009,04,24,06,09,2.70
2009,04,24,06,10,2.70
2009,04,24,06,11,2.70
2009,04,24,06,12,2.70
2009,04,24,06,13,2.90
2009,04,24,06,14,2.90
2009,04,24,06,15,3.10
2009,04,24,06,16,3.10
2009,04,24,06,17,3.20
2009,04,24,06,18,3.20
2009,04,24,06,19,3.20
2009,04,24,06,20,3.20
2009,04,24,06,21,3.30
2009,04,24,06,22,3.30
2009,04,24,06,23,3.40
2009,04,24,06,24,3.40
2009,04,24,06,25,3.30
2009,04,24,06,26,3.30
2009,04,24,06,27,3.30
2009,04,24,06,28,3.30
2009,04,24,06,29,3.30
2009,04,24,06,30,3.30
2009,04,24,06,31,3.30
2009,04,24,06,32,3.30
2009,04,24,06,33,3.40
2009,04,24,06,34,3.50
2009,04,24,06,35,3.60
2009,04,24,06,36,3.70
2009,04,24,06,37,3.80
2009,04,24,06,38,3.90
2009,04,24,06,39,4.00
2009,04,24,06,40,4.00
2009,04,24,06,41,4.00
2009,04,24,06,42,4.10
2009,04,24,06,43,4.10
2009,04,24,06,44,4.20
2009,04,24,06,45,4.20
2009,04,24,06,46,4.30
2009,04,24,06,47,4.30
2009,04,24,06,48,4.30
2009,04,24,06,49,4.30
2009,04,24,06,50,4.30
2009,04,24,06,51,4.30
2009,04,24,06,52,4.30
2009,04,24,06,53,4.30
2009,04,24,06,54,4.30
2009,04,24,06,55,4.30
2009,04,24,06,56,4.30
2009,04,24,06,57,4.40
2009,04,24,06,58,4.50
2009,04,24,06,59,4.50
2009,04,24,07,00,4.60
2009,04,24,07,01,4.60
2009,04,24,07,02,4.70
2009,04,24,07,03,4.70
2009,04,24,07,04,4.70
2009,04,24,07,05,4.70
2009,04,24,07,06,4.70
2009,04,24,07,07,4.80
2009,04,24,07,08,4.80
2009,04,24,07,09,4.90
2009,04,24,07,10,4.90
2009,04,24,07,11,4.90
2009,04,24,07,12,4.90
2009,04,24,07,13,4.90
2009,04,24,07,14,4.90
2009,04,24,07,15,5.00
2009,04,24,07,16,5.10
2009,04,24,07,17,5.10
2009,04,24,07,18,5.20
2009,04,24,07,19,5.30
2009,04,24,07,20,5.40
2009,04,24,07,21,5.40
2009,04,24,07,22,5.40
2009,04,24,07,23,5.40
2009,04,24,07,24,5.40
2009,04,24,07,25,5.40
2009,04,24,07,26,5.40
2009,04,24,07,27,5.50
2009,04,24,07,28,5.50
2009,04,24,07,29,5.50
2009,04,24,07,30,5.60
2009,04,24,07,31,5.60
2009,04,24,07,32,5.70
2009,04,24,07,33,5.70
2009,04,24,07,34,5.70
2009,04,24,07,35,5.80
2009,04,24,07,36,5.80
2009,04,24,07,37,5.90
2009,04,24,07,38,5.90
2009,04,24,07,39,5.90
2009,04,24,07,40,6.00
2009,04,24,07,41,6.00
2009,04,24,07,42,6.10
2009,04,24,07,43,6.20
2009,04,24,07,44,6.20
2009,04,24,07,45,6.30
2009,04,24,07,46,6.30
2009,04,24,07,47,6.40
2009,04,24,07,48,6.40
2009,04,24,07,49,6.40
2009,04,24,07,50,6.50
2009,04,24,07,51,6.50
2009,04,24,07,52,6.60
2009,04,24,07,53,6.60
2009,04,24,07,54,6.60
2009,04,24,07,55,6.70
2009,04,24,07,56,6.70
2009,04,24,07,57,6.70
2009,04,24,07,58,6.80
2009,04,24,07,59,6.80
2009,04,24,08,00,6.80
2009,04,24,08,01,6.90
2009,04,24,08,02,7.00
2009,04,24,08,03,7.00
2009,04,24,08,04,7.00
2009,04,24,08,05,7.10
2009,04,24,08,06,7.10
2009,04,24,08,07,7.10
2009,04,24,08,08,7.20
2009,04,24,08,09,7.20
2009,04,24,08,10,7.20
2009,04,24,08,11,7.20
2009,04,24,08,12,7.20
2009,04,24,08,13,7.20
2009,04,24,08,14,7.20
2009,04,24,08,15,7.30
2009,04,24,08,16,7.30
2009,04,24,08,17,7.30
2009,04,24,08,18,7.40
2009,04,24,08,19,7.40
2009,04,24,08,20,7.50
2009,04,24,08,21,7.50
2009,04,24,08,22,7.60
2009,04,24,08,23,7.60
2009,04,24,08,24,7.60
2009,04,24,08,25,7.60
2009,04,24,08,26,7.70
2009,04,24,08,27,7.70
2009,04,24,08,28,7.70
2009,04,24,08,29,7.70
2009,04,24,08,30,7.80
2009,04,24,08,31,7.80
2009,04,24,08,32,7.80
2009,04,24,08,33,7.90
2009,04,24,08,34,7.90
2009,04,24,08,35,7.90
2009,04,24,08,36,7.90
2009,04,24,08,37,7.90
2009,04,24,08,38,8.00
2009,04,24,08,39,8.00
2009,04,24,08,40,8.10
2009,04,24,08,41,8.10
2009,04,24,08,42,8.10
2009,04,24,08,43,8.10
2009,04,24,08,44,8.20
2009,04,24,08,45,8.20
2009,04,24,08,46,8.20
2009,04,24,08,47,8.20
2009,04,24,08,48,8.30
2009,04,24,08,49,8.30
2009,04,24,08,50,8.40
2009,04,24,08,51,8.40
2009,04,24,08,52,8.40
2009,04,24,08,53,8.50
2009,04,24,08,54,8.50
2009,04,24,08,55,8.50
2009,04,24,08,56,8.50
2009,04,24,08,57,8.60
2009,04,24,08,58,8.60
2009,04,24,08,59,8.60
2009,04,24,09,00,8.70
2009,04,24,09,01,8.70
2009,04,24,09,02,8.80
2009,04,24,09,03,8.80
2009,04,24,09,04,8.90
2009,04,24,09,05,8.90
2009,04,24,09,06,8.90
2009,04,24,09,07,8.90
2009,04,24,09,08,9.00
2009,04,24,09,09,9.00
2009,04,24,09,10,9.10
2009,04,24,09,11,9.10
2009,04,24,09,12,9.10
2009,04,24,09,13,9.10
2009,04,24,09,14,9.20
2009,04,24,09,15,9.20
2009,04,24,09,16,9.30
2009,04,24,09,17,9.30
2009,04,24,09,18,9.40
2009,04,24,09,19,9.40
2009,04,24,09,20,9.50
2009,04,24,09,21,9.60
2009,04,24,09,22,9.60
2009,04,24,09,23,9.70
2009,04,24,09,24,9.70
2009,04,24,09,25,9.70
2009,04,24,09,26,9.80
2009,04,24,09,27,9.80
2009,04,24,09,28,9.90
2009,04,24,09,29,9.90
2009,04,24,09,30,10.00
2009,04,24,09,31,10.00
2009,04,24,09,32,10.20
2009,04,24,09,33,10.30
2009,04,24,09,34,10.30
2009,04,24,09,35,10.40
2009,04,24,09,36,10.40
2009,04,24,09,37,10.50
2009,04,24,09,38,10.60
2009,04,24,09,39,10.60
2009,04,24,09,40,10.70
2009,04,24,09,41,10.70
2009,04,24,09,42,10.70
2009,04,24,09,43,10.70
2009,04,24,09,44,10.60
2009,04,24,09,45,10.50
2009,04,24,09,46,10.40
2009,04,24,09,47,10.20
2009,04,24,09,48,10.10
2009,04,24,09,49,10.10
2009,04,24,09,50,10.10
2009,04,24,09,51,10.00
2009,04,24,09,52,10.00
2009,04,24,09,53,9.90
2009,04,24,09,54,9.90
2009,04,24,09,55,9.80
2009,04,24,09,56,9.80
2009,04,24,09,57,9.70
2009,04,24,09,58,9.70
2009,04,24,09,59,9.70
2009,04,24,10,00,9.70
2009,04,24,10,01,9.70
2009,04,24,10,02,9.70
2009,04,24,10,03,9.70
2009,04,24,10,04,9.70
2009,04,24,10,05,9.70
2009,04,24,10,06,9.70
2009,04,24,10,07,9.70
2009,04,24,10,08,9.70
2009,04,24,10,09,9.60
2009,04,24,10,10,9.60
2009,04,24,10,11,9.70
2009,04,24,10,12,9.70
2009,04,24,10,13,9.70
2009,04,24,10,14,9.70
2009,04,24,10,15,9.70
2009,04,24,10,16,9.70
2009,04,24,10,17,9.70
2009,04,24,10,18,9.70
2009,04,24,10,19,9.70
2009,04,24,10,20,9.70
2009,04,24,10,21,9.70
2009,04,24,10,22,9.70
2009,04,24,10,23,9.80
2009,04,24,10,24,9.80
2009,04,24,10,25,9.80
2009,04,24,10,26,9.80
2009,04,24,10,27,9.80
2009,04,24,10,28,9.80
2009,04,24,10,29,9.80
2009,04,24,10,30,9.80
2009,04,24,10,31,9.80
2009,04,24,10,32,9.80
2009,04,24,10,33,9.90
2009,04,24,10,34,9.90
2009,04,24,10,35,10.00
2009,04,24,10,36,10.10
2009,04,24,10,37,10.10
2009,04,24,10,38,10.10
2009,04,24,10,39,10.20
2009,04,24,10,40,10.20
2009,04,24,10,41,10.20
2009,04,24,10,42,10.20
2009,04,24,10,43,10.30
2009,04,24,10,44,10.30
2009,04,24,10,45,10.30
2009,04,24,10,46,10.30
2009,04,24,10,47,10.30
2009,04,24,10,48,10.30
2009,04,24,10,49,10.30
2009,04,24,10,50,10.30
2009,04,24,10,51,10.30
2009,04,24,10,52,10.30
2009,04,24,10,53,10.30
2009,04,24,10,54,10.40
2009,04,24,10,55,10.40
2009,04,24,10,56,10.40
2009,04,24,10,57,10.40
2009,04,24,10,58,10.40
2009,04,24,10,59,10.40
2009,04,24,11,00,10.40
2009,04,24,11,01,10.50
2009,04,24,11,02,10.50
2009,04,24,11,03,10.60
2009,04,24,11,04,10.70
2009,04,24,11,05,10.70
2009,04,24,11,06,10.70
2009,04,24,11,07,10.70
2009,04,24,11,08,10.80
2009,04,24,11,09,10.70
2009,04,24,11,10,10.80
2009,04,24,11,11,10.80
2009,04,24,11,12,10.80
2009,04,24,11,13,10.80
2009,04,24,11,14,10.80
2009,04,24,11,15,10.80
2009,04,24,11,16,10.80
2009,04,24,11,17,10.90
2009,04,24,11,18,11.00
2009,04,24,11,19,11.10
2009,04,24,11,20,11.20
2009,04,24,11,21,11.30
2009,04,24,11,22,11.40
2009,04,24,11,23,11.50
2009,04,24,11,24,11.60
2009,04,24,11,25,11.60
2009,04,24,11,26,11.70
2009,04,24,11,27,11.80
2009,04,24,11,28,11.80
2009,04,24,11,29,11.90
2009,04,24,11,30,11.90
2009,04,24,11,31,12.00
2009,04,24,11,32,12.00
2009,04,24,11,33,12.10
2009,04,24,11,34,12.00
2009,04,24,11,35,12.00
2009,04,24,11,36,11.90
2009,04,24,11,37,11.90
2009,04,24,11,38,11.80
2009,04,24,11,39,11.70
2009,04,24,11,40,11.60
2009,04,24,11,41,11.60
2009,04,24,11,42,11.50
2009,04,24,11,43,11.50
2009,04,24,11,44,11.30
2009,04,24,11,45,11.30
2009,04,24,11,46,11.20
2009,04,24,11,47,11.10
2009,04,24,11,48,11.00
2009,04,24,11,49,10.90
2009,04,24,11,50,10.80
2009,04,24,11,51,10.80
2009,04,24,11,52,10.70
2009,04,24,11,53,10.70
2009,04,24,11,54,10.70
2009,04,24,11,55,10.70
2009,04,24,11,56,10.70
2009,04,24,11,57,10.70
2009,04,24,11,58,10.70
2009,04,24,11,59,10.70
2009,04,24,12,00,10.80
2009,04,24,12,01,10.80
2009,04,24,12,02,10.80
2009,04,24,12,03,10.90
2009,04,24,12,04,10.90
2009,04,24,12,05,11.00
2009,04,24,12,06,11.00
2009,04,24,12,07,11.00
2009,04,24,12,08,11.00
2009,04,24,12,09,10.90
2009,04,24,12,10,10.80
2009,04,24,12,11,10.80
2009,04,24,12,12,10.80
2009,04,24,12,13,10.80
2009,04,24,12,14,10.80
2009,04,24,12,15,10.90
2009,04,24,12,16,10.90
2009,04,24,12,17,10.90
2009,04,24,12,18,11.00
2009,04,24,12,19,11.00
2009,04,24,12,20,11.00
2009,04,24,12,21,11.00
2009,04,24,12,22,11.00
2009,04,24,12,23,11.10
2009,04,24,12,24,11.10
2009,04,24,12,25,11.00
2009,04,24,12,26,11.00
2009,04,24,12,27,10.90
2009,04,24,12,28,10.90
2009,04,24,12,29,10.90
2009,04,24,12,30,10.90
2009,04,24,12,31,10.90
2009,04,24,12,32,10.90
2009,04,24,12,33,10.90
2009,04,24,12,34,11.00
2009,04,24,12,35,11.00
2009,04,24,12,36,11.00
2009,04,24,12,37,11.10
2009,04,24,12,38,11.10
2009,04,24,12,39,11.10
2009,04,24,12,40,11.20
2009,04,24,12,41,11.20
2009,04,24,12,42,11.20
2009,04,24,12,43,11.20
2009,04,24,12,44,11.20
2009,04,24,12,45,11.30
2009,04,24,12,46,11.40
2009,04,24,12,47,11.50
2009,04,24,12,48,11.60
2009,04,24,12,49,11.80
2009,04,24,12,50,11.90
2009,04,24,12,51,12.10
2009,04,24,12,52,12.20
2009,04,24,12,53,12.30
2009,04,24,12,54,12.30
2009,04,24,12,55,12.30
2009,04,24,12,56,12.30
2009,04,24,12,57,12.30
2009,04,24,12,58,12.20
2009,04,24,12,59,12.20
2009,04,24,13,00,12.20
2009,04,24,13,01,12.20
2009,04,24,13,02,12.20
2009,04,24,13,03,12.20
2009,04,24,13,04,12.30
2009,04,24,13,05,12.40
2009,04,24,13,06,12.40
2009,04,24,13,07,12.50
2009,04,24,13,08,12.60
2009,04,24,13,09,12.70
2009,04,24,13,10,12.80
2009,04,24,13,11,12.90
2009,04,24,13,12,13.00
2009,04,24,13,13,13.00
2009,04,24,13,14,13.00
2009,04,24,13,15,13.00
2009,04,24,13,16,13.10
2009,04,24,13,17,13.10
2009,04,24,13,18,13.00
2009,04,24,13,19,13.10
2009,04,24,13,20,13.10
2009,04,24,13,21,13.00
2009,04,24,13,22,13.00
2009,04,24,13,23,13.10
2009,04,24,13,24,13.10
2009,04,24,13,25,13.10
2009,04,24,13,26,13.20
2009,04,24,13,27,13.20
2009,04,24,13,28,13.30
2009,04,24,13,29,13.30
2009,04,24,13,30,13.40
2009,04,24,13,31,13.50
2009,04,24,13,32,13.60
2009,04,24,13,33,13.70
2009,04,24,13,34,13.70
2009,04,24,13,35,13.70
2009,04,24,13,36,13.60
2009,04,24,13,37,13.60
2009,04,24,13,38,13.50
2009,04,24,13,39,13.50
2009,04,24,13,40,13.40
2009,04,24,13,41,13.40
2009,04,24,13,42,13.30
2009,04,24,13,43,13.30
2009,04,24,13,44,13.30
2009,04,24,13,45,13.30
2009,04,24,13,46,13.40
2009,04,24,13,47,13.40
2009,04,24,13,48,13.50
2009,04,24,13,49,13.60
2009,04,24,13,50,13.70
2009,04,24,13,51,13.80
2009,04,24,13,52,13.90
2009,04,24,13,53,13.90
2009,04,24,13,54,13.90
2009,04,24,13,55,14.00
2009,04,24,13,56,14.00
2009,04,24,13,57,14.10
2009,04,24,13,58,14.00
2009,04,24,13,59,13.90
2009,04,24,14,00,13.80
2009,04,24,14,01,13.60
2009,04,24,14,02,13.50
2009,04,24,14,03,13.40
2009,04,24,14,04,13.30
2009,04,24,14,05,13.20
2009,04,24,14,06,13.10
2009,04,24,14,07,13.00
2009,04,24,14,08,13.00
2009,04,24,14,09,12.90
2009,04,24,14,10,12.90
2009,04,24,14,11,12.90
2009,04,24,14,12,12.90
2009,04,24,14,13,12.90
2009,04,24,14,14,12.90
2009,04,24,14,15,13.00
2009,04,24,14,16,13.10
2009,04,24,14,17,13.20
2009,04,24,14,18,13.30
2009,04,24,14,19,13.40
2009,04,24,14,20,13.60
2009,04,24,14,21,13.70
2009,04,24,14,22,13.70
2009,04,24,14,23,13.70
2009,04,24,14,24,13.70
2009,04,24,14,25,13.80
2009,04,24,14,26,13.90
2009,04,24,14,27,14.00
2009,04,24,14,28,14.10
2009,04,24,14,29,14.10
2009,04,24,14,30,14.20
2009,04,24,14,31,14.30
2009,04,24,14,32,14.30
2009,04,24,14,33,14.50
2009,04,24,14,34,14.60
2009,04,24,14,35,14.70
2009,04,24,14,36,14.70
2009,04,24,14,37,14.80
2009,04,24,14,38,14.70
2009,04,24,14,39,14.70
2009,04,24,14,40,14.60
2009,04,24,14,41,14.50
2009,04,24,14,42,14.40
2009,04,24,14,43,14.50
2009,04,24,14,44,14.50
2009,04,24,14,45,14.50
2009,04,24,14,46,14.50
2009,04,24,14,47,14.50
2009,04,24,14,48,14.60
2009,04,24,14,49,14.70
2009,04,24,14,50,14.70
2009,04,24,14,51,14.60
2009,04,24,14,52,14.50
2009,04,24,14,53,14.50
2009,04,24,14,54,14.40
2009,04,24,14,55,14.40
2009,04,24,14,56,14.40
2009,04,24,14,57,14.50
2009,04,24,14,58,14.50
2009,04,24,14,59,14.30
2009,04,24,15,00,14.20
2009,04,24,15,01,14.00
2009,04,24,15,02,13.90
2009,04,24,15,03,13.90
2009,04,24,15,04,13.80
2009,04,24,15,05,13.80
2009,04,24,15,06,13.80
2009,04,24,15,07,13.80
2009,04,24,15,08,13.70
2009,04,24,15,09,13.70
2009,04,24,15,10,13.70
2009,04,24,15,11,13.80
2009,04,24,15,12,13.70
2009,04,24,15,13,13.70
2009,04,24,15,14,13.70
2009,04,24,15,15,13.80
2009,04,24,15,16,13.80
2009,04,24,15,17,13.90
2009,04,24,15,18,14.10
2009,04,24,15,19,14.20
2009,04,24,15,20,14.40
2009,04,24,15,21,14.50
2009,04,24,15,22,14.60
2009,04,24,15,23,14.70
2009,04,24,15,24,14.70
2009,04,24,15,25,14.70
2009,04,24,15,26,14.60
2009,04,24,15,27,14.50
2009,04,24,15,28,14.50
2009,04,24,15,29,14.60
2009,04,24,15,30,14.60
2009,04,24,15,31,14.50
2009,04,24,15,32,14.50
2009,04,24,15,33,14.50
2009,04,24,15,34,14.50
2009,04,24,15,35,14.40
2009,04,24,15,36,14.30
2009,04,24,15,37,14.30
2009,04,24,15,38,14.30
2009,04,24,15,39,14.40
2009,04,24,15,40,14.40
2009,04,24,15,41,14.30
2009,04,24,15,42,14.30
2009,04,24,15,43,14.30
2009,04,24,15,44,14.20
2009,04,24,15,45,14.20
2009,04,24,15,46,14.10
2009,04,24,15,47,14.10
2009,04,24,15,48,14.00
2009,04,24,15,49,14.00
2009,04,24,15,50,14.00
2009,04,24,15,51,14.10
2009,04,24,15,52,14.30
2009,04,24,15,53,14.30
2009,04,24,15,54,14.20
2009,04,24,15,55,14.10
2009,04,24,15,56,14.10
2009,04,24,15,57,14.10
2009,04,24,15,58,14.20
2009,04,24,15,59,14.20
2009,04,24,16,00,14.20
2009,04,24,16,01,14.30
2009,04,24,16,02,14.40
2009,04,24,16,03,14.40
2009,04,24,16,04,14.50
2009,04,24,16,05,14.50
2009,04,24,16,06,14.60
2009,04,24,16,07,14.60
2009,04,24,16,08,14.70
2009,04,24,16,09,14.70
2009,04,24,16,10,14.70
2009,04,24,16,11,14.50
2009,04,24,16,12,14.40
2009,04,24,16,13,14.40
2009,04,24,16,14,14.40
2009,04,24,16,15,14.40
2009,04,24,16,16,14.40
2009,04,24,16,17,14.50
2009,04,24,16,18,14.40
2009,04,24,16,19,14.30
2009,04,24,16,20,14.30
2009,04,24,16,21,14.30
2009,04,24,16,22,14.20
2009,04,24,16,23,14.20
2009,04,24,16,24,14.20
2009,04,24,16,25,14.20
2009,04,24,16,26,14.30
2009,04,24,16,27,14.30
2009,04,24,16,28,14.30
2009,04,24,16,29,14.30
2009,04,24,16,30,14.30
2009,04,24,16,31,14.30
2009,04,24,16,32,14.20
2009,04,24,16,33,14.10
2009,04,24,16,34,14.10
2009,04,24,16,35,14.10
2009,04,24,16,36,14.20
2009,04,24,16,37,14.10
2009,04,24,16,38,14.10
2009,04,24,16,39,14.10
2009,04,24,16,40,14.10
2009,04,24,16,41,14.10
2009,04,24,16,42,14.20
2009,04,24,16,43,14.40
2009,04,24,16,44,14.40
2009,04,24,16,45,14.40
2009,04,24,16,46,14.50
2009,04,24,16,47,14.50
2009,04,24,16,48,14.50
2009,04,24,16,49,14.50
2009,04,24,16,50,14.40
2009,04,24,16,51,14.30
2009,04,24,16,52,14.30
2009,04,24,16,53,14.40
2009,04,24,16,54,14.40
2009,04,24,16,55,14.40
2009,04,24,16,56,14.50
2009,04,24,16,57,14.60
2009,04,24,16,58,14.60
2009,04,24,16,59,14.60
2009,04,24,17,00,14.60
2009,04,24,17,01,14.60
2009,04,24,17,02,14.60
2009,04,24,17,03,14.70
2009,04,24,17,04,14.70
2009,04,24,17,05,14.70
2009,04,24,17,06,14.60
2009,04,24,17,07,14.50
2009,04,24,17,08,14.40
2009,04,24,17,09,14.30
2009,04,24,17,10,14.20
2009,04,24,17,11,14.10
2009,04,24,17,12,14.10
2009,04,24,17,13,14.10
2009,04,24,17,14,14.10
2009,04,24,17,15,14.10
2009,04,24,17,16,14.10
2009,04,24,17,17,14.00
2009,04,24,17,18,14.00
2009,04,24,17,19,13.90
2009,04,24,17,20,13.90
2009,04,24,17,21,13.90
2009,04,24,17,22,13.90
2009,04,24,17,23,13.90
2009,04,24,17,24,13.90
2009,04,24,17,25,13.90
2009,04,24,17,26,13.90
2009,04,24,17,27,13.90
2009,04,24,17,28,13.90
2009,04,24,17,29,13.90
2009,04,24,17,30,13.90
2009,04,24,17,31,14.00
2009,04,24,17,32,14.00
2009,04,24,17,33,14.00
2009,04,24,17,34,14.00
2009,04,24,17,35,13.90
2009,04,24,17,36,13.90
2009,04,24,17,37,13.90
2009,04,24,17,38,13.90
2009,04,24,17,39,13.90
2009,04,24,17,40,13.90
2009,04,24,17,41,13.90
2009,04,24,17,42,13.90
2009,04,24,17,43,13.90
2009,04,24,17,44,13.80
2009,04,24,17,45,13.80
2009,04,24,17,46,13.70